Location: Ferintosh
(52.7647°N, 112.9692°W)
Time: 22:35:59
(UTC+00:00)

Vanguard 1 Rocket - Pass Details

Date: 24 May 2024
Orbit: 649 x 4221 km, 34.3° (Epoch: 13 June)

Event Time Altitude Azimuth Distance (km) Brightness Sun altitude
Rises 16:08:55 0° 226° (SW) 8,320 12.1 40.4°
Reaches altitude 10° 16:16:04 10° 218° (SW) 6,988 11.9 41.4°
Maximum altitude 16:33:08 31° 167° (SSE) 4,137 11.6 43.8°
Drops below altitude 10° 16:43:52 10° 112° (ESE) 4,402 11.9 45.2°
Sets 16:47:07 0° 101° (ESE) 4,979 11.9 45.6°
